Tracking 25612 objects as of 19-May-2022
HD Live streaming from Space Station
objects crossing your sky now

SL-14 DEB

Track SL-14 DEB now!
10-day predictions


NORAD ID: 45289
Int'l Code: 1991-056AB
Perigee: 1,200.1 km
Apogee: 1,476.3 km
Inclination: 82.5 °
Period: 112.3 minutes
Semi major axis: 7709 km
RCS: Unknown
Launch date: August 15, 1991
Source: Commonwealth of Independent States (former USSR) (CIS)
Launch site: PLESETSK MISSILE AND SPACE COMPLEX (PKMTR)

Note: This is SATELLITE DEBRIS
aabbcc
Your satellite tracking list
Your tracking list is empty




NASA's NSSDC Master Catalog

Two Line Element Set (TLE):
1 45289U 91056AB  22138.74028620  .00000154  00000-0  55882-3 0  9995
2 45289  82.5335 145.3255 0179161 122.0025 239.8629 12.82593239105153
Source of the keplerian elements: AFSPC